{"data":{"norad_id":67916,"intl_designator":"2026-036N","name":"STARLINK-36721","alt_names":[],"object_type":"PAYLOAD","status":"ACTIVE","operator":null,"country":"US","launch_date":"2026-02-22","launch_site_code":"AFETR","launch_vehicle":null,"mission":null,"orbit_class":"UNKNOWN","rcs_meters":null,"size_class":null,"mass_kg":null,"dimensions":null,"purposes":["comms"],"wikipedia_slug":null,"has_3d_model":false,"image_url":null,"decayed_at":null,"tle_current":{"epoch":"2026-05-25T02:48:29.325312Z","epoch_age_seconds":68042,"freshness":"FRESH","line1":"1 67916U 26036N   26145.11700608  .00009524  00000+0  35507-3 0  9999","line2":"2 67916  43.0003 173.3736 0001086 269.2910  90.7817 15.27590246 15419","mean_motion":15.27590246,"eccentricity":0.0001086,"inclination_deg":43.0003,"raan_deg":173.3736,"arg_perigee_deg":269.291,"mean_anomaly_deg":90.7817,"bstar":0.00035507,"rev_number":1541,"period_min":94.266116438662,"perigee_km":482.27329452298,"apogee_km":483.76353747934,"semimajor_km":6861.1554160012,"source":"CELESTRAK","updated_at":"2026-05-25T13:38:21.740123Z"}}}